QPF
0.00 0.00 0.00 0.00 0.00 0.00 0.00 0.00 0.00 0.00 0.00 0.00 0.00 0.00 0.00 0.00 0.00 0.00 0.00 0.00 0.00 0.00 0.00 0.00 0.00 0.00 0.00 0.00 0.00 0.00 0.02 0.00 0.00 0.01 0.03 0.00 0.00 0.00 0.00 0.00 0.00 0.00 0.00 0.00 0.00
0.00 0.00 0.00 0.00 0.00 0.00 0.00 0.00 0.00 0.00 0.00 0.00 0.00 0.00 0.00 0.00 0.00 0.00 0.00 0.00 0.00 0.00 0.00 0.00 0.00 0.00 0.00 0.00 0.00 0.00 0.10 0.11 0.03 0.00 0.00 0.00 0.00 0.00 0.00 0.00 0.00 0.00 0.00 0.00 0.00
0.00 0.00 0.00 0.00 0.00 0.00 0.00 0.00 0.00 0.00 0.00 0.00 0.00 0.00 0.00 0.00 0.00 0.00 0.00 0.00 0.00 0.00 0.00 0.00 0.00 0.00 0.00 0.00 0.00 0.00 0.03 0.04 0.01 0.00 0.03 0.06 0.00 0.00 0.00 0.00 0.00 0.00 0.00 0.00 0.00
0.00 0.00 0.00 0.00 0.00 0.00 0.00 0.00 0.00 0.00 0.00 0.00 0.00 0.00 0.00 0.00 0.00 0.00 0.00 0.00 0.00 0.00 0.00 0.00 0.00 0.00 0.00 0.00 0.00 0.00 0.00 0.00 0.00 0.00 0.01 0.01 0.00 0.01 0.00 0.00 0.00 0.00 0.00 0.00 0.00
0.00 0.00 0.00 0.00 0.00 0.00 0.00 0.00 0.00 0.00 0.00 0.00 0.00 0.00 0.00 0.00 0.00 0.00 0.00 0.00 0.00 0.00 0.00 0.00 0.00 0.00 0.00 0.00 0.00 0.00 0.00 0.00 0.00 0.00 0.00 0.00 0.01 0.03 0.00 0.00 0.00 0.00 0.00 0.00 0.00
0.00 0.00 0.00 0.00 0.00 0.00 0.00 0.00 0.00 0.00 0.00 0.00 0.00 0.00 0.00 0.00 0.00 0.00 0.00 0.00 0.00 0.00 0.00 0.00 0.00 0.00 0.00 0.00 0.00 0.00 0.00 0.00 0.00 0.00 0.00 0.00 0.05 0.10 0.02 0.00 0.00 0.00 0.00 0.00 0.00
0.00 0.00 0.00 0.00 0.00 0.00 0.00 0.00 0.00 0.00 0.00 0.00 0.00 0.00 0.00 0.00 0.00 0.00 0.00 0.00 0.00 0.00 0.00 0.00 0.00 0.00 0.00 0.00 0.00 0.00 0.01 0.05 0.06 0.00 0.00 0.00 0.05 0.11 0.01 0.00 0.00 0.00 0.00 0.00 0.00
0.00 0.00 0.00 0.00 0.00 0.00 0.00 0.00 0.00 0.00 0.00 0.00 0.00 0.00 0.00 0.00 0.00 0.00 0.00 0.00 0.00 0.00 0.00 0.00 0.00 0.00 0.00 0.00 0.00 0.00 0.00 0.06 0.05 0.01 0.03 0.04 0.08 0.04 0.00 0.04 0.04 0.00 0.00 0.00 0.00
0.00 0.00 0.00 0.00 0.00 0.00 0.00 0.00 0.00 0.00 0.00 0.00 0.00 0.00 0.00 0.00 0.00 0.00 0.00 0.00 0.00 0.00 0.00 0.00 0.00 0.00 0.00 0.00 0.00 0.00 0.00 0.00 0.04 0.00 0.00 0.03 0.12 0.09 0.01 0.07 0.07 0.00 0.00 0.00 0.00
0.00 0.00 0.00 0.00 0.00 0.00 0.00 0.00 0.00 0.00 0.00 0.00 0.00 0.00 0.00 0.00 0.00 0.00 0.00 0.00 0.00 0.00 0.00 0.00 0.00 0.00 0.00 0.00 0.00 0.00 0.00 0.00 0.00 0.00 0.00 0.00 0.02 0.03 0.01 0.00 0.02 0.00 0.00 0.00 0.00
0.00 0.00 0.00 0.00 0.00 0.00 0.00 0.00 0.00 0.00 0.00 0.00 0.00 0.00 0.00 0.00 0.00 0.00 0.00 0.00 0.00 0.00 0.00 0.00 0.00 0.00 0.00 0.00 0.00 0.00 0.00 0.00 0.00 0.00 0.00 0.00 0.00 0.00 0.02 0.00 0.01 0.00 0.00 0.00 0.00
0.00 0.00 0.00 0.00 0.00 0.00 0.00 0.00 0.00 0.00 0.00 0.00 0.00 0.00 0.00 0.00 0.00 0.00 0.00 0.00 0.00 0.00 0.00 0.00 0.00 0.00 0.00 0.00 0.00 0.00 0.00 0.00 0.00 0.00 0.00 0.00 0.00 0.00 0.00 0.02 0.09 0.02 0.01 0.00 0.00
0.00 0.00 0.00 0.00 0.00 0.00 0.00 0.00 0.00 0.00 0.00 0.00 0.00 0.00 0.00 0.00 0.00 0.00 0.00 0.00 0.00 0.00 0.00 0.00 0.00 0.00 0.00 0.00 0.00 0.00 0.00 0.00 0.00 0.00 0.00 0.00 0.00 0.00 0.00 0.00 0.00 0.00 0.00 0.00 0.00
0.00 0.00 0.00 0.00 0.00 0.00 0.00 0.00 0.00 0.00 0.00 0.00 0.00 0.00 0.00 0.00 0.00 0.00 0.00 0.00 0.00 0.00 0.00 0.00 0.00 0.00 0.00 0.00 0.00 0.00 0.00 0.00 0.00 0.00 0.01 0.00 0.00 0.00 0.00 0.00 0.00 0.00 0.00 0.00 0.00
0.00 0.00 0.00 0.00 0.00 0.00 0.00 0.00 0.00 0.00 0.00 0.00 0.00 0.00 0.00 0.00 0.00 0.00 0.00 0.00 0.00 0.00 0.00 0.00 0.00 0.00 0.00 0.00 0.00 0.00 0.00 0.00 0.00 0.00 0.00 0.00 0.00 0.00 0.00 0.00 0.00 0.00 0.00 0.00 0.00
0.00 0.00 0.00 0.00 0.00 0.00 0.00 0.00 0.00 0.00 0.00 0.00 0.00 0.00 0.00 0.00 0.00 0.00 0.00 0.00 0.00 0.00 0.00 0.00 0.00 0.00 0.00 0.00 0.00 0.00 0.00 0.00 0.00 0.00 0.00 0.00 0.00 0.00 0.00 0.00 0.00 0.00 0.00 0.00 0.00
0.00 0.00 0.00 0.00 0.00 0.00 0.00 0.00 0.00 0.00 0.00 0.00 0.00 0.00 0.00 0.00 0.00 0.00 0.00 0.00 0.00 0.00 0.00 0.00 0.00 0.00 0.00 0.00 0.00 0.00 0.00 0.00 0.00 0.00 0.00 0.00 0.00 0.00 0.00 0.00 0.00 0.00 0.00 0.00 0.00
0.00 0.00 0.00 0.00 0.00 0.00 0.00 0.00 0.00 0.00 0.00 0.00 0.00 0.00 0.00 0.00 0.00 0.00 0.00 0.00 0.00 0.00 0.00 0.00 0.00 0.00 0.00 0.00 0.00 0.00 0.00 0.00 0.00 0.00 0.00 0.00 0.00 0.00 0.00 0.00 0.00 0.00 0.00 0.00 0.00
0.00 0.00 0.00 0.00 0.00 0.00 0.00 0.00 0.00 0.00 0.00 0.00 0.00 0.00 0.00 0.00 0.00 0.00 0.00 0.00 0.00 0.00 0.00 0.00 0.00 0.00 0.00 0.00 0.00 0.00 0.00 0.00 0.00 0.00 0.00 0.00 0.00 0.00 0.00 0.00 0.00 0.00 0.00 0.00 0.00
0.00 0.00 0.00 0.00 0.00 0.00 0.00 0.00 0.00 0.00 0.00 0.00 0.00 0.00 0.00 0.00 0.00 0.00 0.00 0.00 0.00 0.00 0.00 0.00 0.00 0.00 0.00 0.00 0.00 0.00 0.00 0.00 0.00 0.00 0.00 0.00 0.00 0.00 0.00 0.00 0.00 0.00 0.00 0.00 0.00
0.00 0.00 0.00 0.00 0.00 0.00 0.00 0.00 0.00 0.00 0.00 0.00 0.00 0.00 0.00 0.00 0.00 0.00 0.00 0.00 0.00 0.00 0.00 0.00 0.00 0.00 0.00 0.00 0.00 0.00 0.00 0.00 0.00 0.00 0.00 0.00 0.00 0.00 0.00 0.00 0.00 0.00 0.00 0.00 0.00
0.00 0.00 0.00 0.00 0.00 0.00 0.00 0.00 0.00 0.00 0.00 0.00 0.00 0.00 0.00 0.00 0.00 0.00 0.00 0.00 0.00 0.00 0.00 0.00 0.00 0.00 0.00 0.00 0.00 0.00 0.00 0.00 0.00 0.00 0.00 0.00 0.00 0.00 0.00 0.00 0.00 0.00 0.00 0.00 0.00
0.00 0.00 0.00 0.00 0.00 0.00 0.00 0.00 0.00 0.00 0.00 0.00 0.00 0.00 0.00 0.00 0.00 0.00 0.00 0.00 0.00 0.00 0.00 0.00 0.00 0.00 0.00 0.00 0.00 0.00 0.00 0.00 0.00 0.00 0.00 0.00 0.00 0.00 0.00 0.00 0.00 0.00 0.00 0.00 0.00
0.00 0.00 0.00 0.00 0.00 0.00 0.00 0.00 0.00 0.00 0.00 0.00 0.00 0.00 0.00 0.00 0.00 0.00 0.00 0.00 0.00 0.00 0.00 0.00 0.00 0.00 0.00 0.00 0.00 0.00 0.00 0.00 0.00 0.00 0.00 0.00 0.00 0.00 0.00 0.00 0.00 0.00 0.00 0.00 0.00
0.00 0.00 0.00 0.00 0.00 0.00 0.00 0.00 0.00 0.00 0.00 0.00 0.00 0.00 0.00 0.00 0.00 0.00 0.00 0.00 0.00 0.00 0.00 0.00 0.00 0.00 0.00 0.00 0.00 0.00 0.00 0.00 0.00 0.00 0.00 0.00 0.00 0.00 0.00 0.00 0.00 0.00 0.00 0.00 0.00
0.00 0.00 0.00 0.00 0.00 0.00 0.00 0.00 0.00 0.00 0.00 0.00 0.00 0.00 0.00 0.00 0.00 0.00 0.00 0.00 0.00 0.00 0.00 0.00 0.00 0.00 0.00 0.00 0.00 0.00 0.00 0.00 0.00 0.00 0.00 0.00 0.00 0.00 0.00 0.00 0.00 0.00 0.00 0.00 0.00
0.00 0.00 0.00 0.00 0.00 0.00 0.00 0.00 0.00 0.00 0.00 0.00 0.00 0.00 0.00 0.00 0.00 0.00 0.00 0.00 0.00 0.00 0.00 0.00 0.00 0.00 0.00 0.00 0.00 0.00 0.00 0.00 0.00 0.00 0.00 0.00 0.00 0.00 0.00 0.00 0.00 0.00 0.00 0.00 0.00
MSLP
1017.54 1017.17 1016.86 1016.57 1016.29 1015.93 1015.60 1015.28 1014.95 1014.76 1014.58 1014.39 1014.30 1014.08 1013.81 1013.35 1012.67 1012.17 1010.18 1009.40 1009.30 1009.67 1009.68 1008.90 1008.57 1008.04 1007.72 1007.33 1008.21 1008.24 1007.91 1008.89 1009.36 1010.07 1011.09 1011.94 1011.17 1011.13 1010.56 1009.93 1010.38 1010.65 1010.19 1011.32 1012.90
1017.49 1017.11 1016.75 1016.39 1016.08 1015.77 1015.54 1015.22 1014.85 1014.60 1014.49 1014.32 1014.14 1013.96 1013.69 1013.33 1011.74 1010.06 1009.31 1009.51 1009.68 1009.67 1008.92 1008.32 1007.71 1007.66 1007.19 1007.13 1007.36 1007.30 1008.07 1008.82 1009.34 1010.83 1011.37 1011.71 1011.45 1010.73 1009.99 1009.83 1010.39 1010.86 1011.25 1012.20 1012.98
1017.37 1016.95 1016.59 1016.23 1015.85 1015.50 1015.27 1015.07 1014.78 1014.46 1014.31 1014.21 1013.97 1013.81 1013.57 1013.10 1010.68 1008.31 1009.09 1009.57 1009.71 1009.66 1008.76 1008.25 1007.70 1007.30 1006.78 1006.84 1006.98 1007.57 1008.18 1009.09 1010.39 1011.07 1011.42 1011.53 1011.50 1010.77 1010.00 1009.67 1009.81 1010.50 1011.49 1012.28 1012.82
1017.31 1016.91 1016.45 1016.03 1015.66 1015.29 1015.01 1014.81 1014.59 1014.31 1014.07 1013.95 1013.78 1013.61 1013.39 1012.22 1009.22 1008.48 1009.30 1009.64 1009.74 1009.17 1008.67 1008.02 1007.44 1006.60 1006.24 1006.22 1007.04 1007.34 1008.77 1009.32 1010.81 1011.52 1011.61 1011.81 1011.36 1010.78 1010.16 1009.68 1010.10 1010.57 1011.43 1012.13 1012.54
1017.23 1016.82 1016.35 1015.86 1015.46 1015.11 1014.76 1014.51 1014.30 1014.08 1013.85 1013.68 1013.54 1013.45 1013.03 1010.51 1008.62 1008.65 1009.50 1009.75 1009.38 1009.05 1008.25 1007.65 1006.95 1006.55 1006.21 1006.54 1007.05 1007.61 1008.95 1009.73 1010.63 1011.66 1012.00 1012.07 1011.83 1010.89 1010.54 1010.62 1010.57 1010.92 1011.62 1011.99 1012.29
1017.17 1016.68 1016.18 1015.71 1015.24 1014.82 1014.45 1014.17 1013.98 1013.77 1013.54 1013.42 1013.34 1013.30 1011.72 1008.81 1008.73 1008.67 1008.93 1009.25 1008.71 1008.59 1008.00 1007.68 1007.15 1006.97 1006.57 1006.83 1006.93 1008.17 1008.91 1009.75 1010.45 1011.17 1011.68 1011.98 1012.15 1011.29 1011.21 1010.96 1010.96 1011.24 1011.49 1011.88 1012.24
1017.13 1016.59 1016.05 1015.57 1015.10 1014.63 1014.19 1013.81 1013.54 1013.38 1013.23 1013.17 1013.10 1012.53 1010.24 1008.82 1008.63 1008.80 1008.95 1008.72 1008.77 1008.46 1007.74 1007.82 1007.61 1007.11 1006.73 1007.00 1007.67 1008.13 1008.63 1009.62 1010.26 1011.10 1012.11 1012.34 1012.49 1012.19 1011.41 1011.33 1011.09 1011.10 1011.42 1011.94 1012.35
1017.05 1016.51 1015.92 1015.39 1014.86 1014.38 1013.93 1013.50 1013.06 1012.80 1012.96 1012.97 1012.85 1011.68 1008.78 1008.87 1008.77 1009.00 1008.74 1008.77 1008.92 1008.73 1008.22 1008.09 1007.84 1007.14 1006.69 1007.35 1007.55 1007.40 1008.03 1008.77 1010.11 1010.73 1011.92 1012.26 1012.37 1012.51 1012.24 1011.68 1011.18 1011.25 1011.44 1011.93 1012.29
1016.90 1016.36 1015.74 1015.20 1014.65 1014.14 1013.67 1013.23 1012.73 1012.64 1012.73 1012.82 1012.14 1010.38 1008.27 1009.53 1008.61 1008.18 1008.22 1007.94 1008.39 1008.50 1008.38 1008.38 1007.69 1006.78 1007.02 1006.29 1005.95 1006.80 1006.62 1007.82 1009.22 1010.07 1010.52 1011.08 1011.08 1011.84 1012.45 1012.13 1011.45 1011.26 1011.27 1011.58 1012.00
1016.78 1016.17 1015.56 1014.97 1014.42 1013.92 1013.44 1013.14 1012.84 1012.54 1012.46 1011.92 1011.04 1009.77 1008.21 1007.31 1007.64 1007.94 1008.25 1007.99 1007.78 1007.94 1007.98 1007.68 1006.88 1006.15 1005.81 1005.11 1004.68 1005.41 1006.01 1007.29 1007.88 1009.03 1009.82 1009.99 1010.34 1011.19 1012.10 1012.41 1011.88 1011.22 1011.14 1011.26 1011.50
1016.68 1015.95 1015.31 1014.67 1014.16 1013.74 1013.02 1012.35 1012.08 1011.31 1010.44 1008.65 1008.07 1007.41 1006.93 1007.05 1007.47 1007.39 1007.81 1007.72 1007.48 1007.32 1006.62 1006.86 1005.99 1005.10 1004.59 1004.94 1005.64 1005.94 1006.12 1006.72 1007.71 1008.53 1008.91 1009.07 1009.64 1010.63 1011.33 1012.29 1012.07 1011.50 1010.91 1010.83 1011.16
1016.61 1015.86 1015.05 1014.36 1013.79 1013.33 1012.78 1010.00 1010.24 1010.29 1008.56 1007.62 1007.60 1007.34 1006.95 1006.52 1006.61 1006.93 1007.28 1006.92 1006.90 1006.41 1006.57 1006.61 1005.54 1004.90 1005.43 1005.69 1005.74 1005.70 1005.87 1006.54 1007.72 1008.32 1008.47 1008.33 1008.58 1009.39 1010.36 1011.01 1011.58 1011.68 1010.83 1010.60 1010.80
1016.45 1015.78 1015.00 1013.98 1013.28 1012.86 1011.34 1009.94 1010.07 1009.95 1008.17 1006.81 1006.46 1006.05 1006.21 1006.45 1005.79 1006.18 1006.67 1006.39 1006.28 1006.05 1006.07 1005.30 1004.88 1005.27 1005.40 1005.32 1005.35 1005.08 1005.37 1006.20 1006.60 1007.67 1007.71 1007.65 1007.43 1008.50 1009.40 1010.17 1010.53 1011.16 1011.33 1010.89 1010.56
1016.34 1015.71 1015.07 1013.97 1013.36 1011.74 1010.22 1010.27 1010.08 1009.85 1007.04 1005.86 1005.48 1005.28 1005.73 1005.47 1005.54 1005.72 1006.14 1006.00 1006.07 1005.65 1005.65 1005.33 1004.99 1005.42 1005.09 1004.91 1004.83 1004.43 1005.56 1006.06 1006.39 1006.09 1005.97 1006.75 1005.97 1006.94 1007.90 1008.94 1009.82 1010.05 1010.62 1010.48 1010.31
1016.25 1015.61 1015.11 1014.97 1013.06 1010.89 1010.52 1010.24 1009.93 1009.36 1005.65 1004.66 1004.59 1005.08 1004.96 1004.87 1005.14 1005.93 1006.06 1005.98 1005.18 1005.31 1005.63 1004.32 1004.74 1004.90 1004.62 1004.34 1004.79 1004.75 1005.79 1005.87 1005.87 1005.43 1005.60 1005.73 1005.19 1005.85 1007.01 1007.43 1008.05 1008.83 1009.57 1010.07 1009.91
1015.84 1015.43 1014.97 1013.83 1012.62 1010.83 1010.69 1010.21 1009.62 1007.62 1004.46 1004.01 1004.20 1004.39 1004.49 1004.37 1004.55 1005.42 1005.88 1005.98 1005.52 1005.14 1005.04 1004.58 1005.04 1004.73 1004.32 1004.79 1004.97 1005.40 1005.65 1005.85 1005.64 1005.28 1004.23 1004.90 1005.07 1004.23 1005.11 1006.03 1006.56 1007.28 1008.13 1008.55 1009.14
1015.41 1014.82 1014.78 1013.11 1010.76 1011.04 1010.62 1009.33 1007.49 1005.20 1004.46 1003.50 1003.36 1003.58 1003.47 1003.70 1004.10 1004.57 1004.90 1004.91 1004.20 1004.10 1003.67 1003.97 1004.17 1004.46 1004.62 1004.52 1005.10 1005.01 1004.34 1003.70 1003.74 1003.53 1003.23 1004.55 1004.54 1003.73 1004.91 1005.75 1006.33 1006.73 1007.11 1007.88 1008.39
1014.99 1014.13 1013.35 1012.38 1011.61 1011.31 1010.03 1008.23 1005.71 1003.95 1003.21 1003.27 1002.89 1002.98 1002.87 1002.97 1003.36 1003.82 1003.87 1003.61 1003.81 1003.45 1002.44 1002.60 1003.32 1003.86 1004.08 1003.60 1003.54 1004.06 1003.43 1002.79 1002.68 1002.86 1003.19 1004.49 1003.76 1003.95 1005.07 1005.61 1006.28 1006.85 1007.02 1007.03 1007.34
1014.29 1012.10 1011.59 1011.22 1011.59 1011.35 1009.37 1006.68 1004.23 1003.54 1003.01 1002.83 1002.98 1002.57 1002.46 1002.77 1002.79 1003.09 1003.18 1002.76 1002.69 1003.13 1002.45 1002.23 1002.34 1003.55 1003.85 1003.91 1003.75 1003.77 1003.82 1003.31 1003.09 1003.72 1003.76 1003.25 1003.85 1004.19 1004.86 1005.28 1005.78 1006.21 1006.72 1006.93 1007.10
1014.14 1011.88 1010.73 1011.08 1011.03 1010.29 1008.45 1005.67 1004.30 1004.11 1003.65 1003.33 1002.24 1002.01 1001.52 1001.97 1002.55 1002.44 1002.38 1002.25 1002.30 1002.64 1002.57 1002.17 1002.30 1003.10 1003.92 1004.11 1004.27 1003.69 1003.38 1003.36 1003.31 1002.82 1002.81 1002.81 1003.57 1003.19 1004.16 1004.86 1005.37 1005.65 1006.15 1006.93 1007.35
1013.68 1011.19 1010.91 1010.93 1010.71 1009.02 1006.82 1005.41 1004.83 1004.62 1004.25 1003.39 1002.59 1002.23 1001.77 1001.28 1001.77 1001.66 1001.56 1001.87 1001.93 1002.41 1002.79 1002.26 1002.23 1003.17 1003.68 1003.14 1002.54 1003.67 1003.21 1003.36 1002.92 1003.22 1002.57 1002.35 1002.44 1003.62 1004.24 1005.09 1005.35 1005.80 1006.40 1006.89 1007.47
1013.37 1010.56 1010.57 1010.69 1009.25 1007.61 1006.37 1005.92 1005.78 1004.53 1004.46 1003.98 1003.59 1002.93 1002.43 1002.04 1001.64 1001.39 1001.30 1001.23 1001.74 1002.26 1002.53 1002.71 1001.94 1002.00 1002.38 1003.36 1003.63 1003.17 1002.76 1002.67 1002.52 1002.75 1003.09 1003.31 1002.96 1003.64 1004.59 1005.26 1005.87 1006.23 1006.76 1007.39 1007.93
1013.03 1010.92 1010.25 1010.23 1007.88 1006.95 1006.47 1006.19 1005.71 1004.78 1004.16 1003.93 1003.59 1003.29 1002.81 1002.31 1002.00 1001.69 1001.46 1001.85 1002.42 1002.23 1001.93 1002.63 1002.14 1002.01 1002.70 1003.50 1003.68 1003.06 1002.97 1002.90 1002.67 1002.61 1002.69 1002.90 1002.59 1003.89 1004.81 1005.48 1006.08 1006.39 1007.00 1007.74 1008.22
1013.64 1010.39 1009.30 1009.16 1008.46 1007.32 1006.58 1005.95 1005.31 1005.14 1004.57 1004.20 1003.94 1003.56 1003.19 1002.65 1002.39 1001.84 1001.77 1002.41 1002.62 1002.49 1002.92 1002.46 1001.49 1001.68 1001.45 1001.87 1002.37 1002.71 1003.14 1003.20 1002.69 1002.25 1002.05 1002.44 1002.71 1003.54 1004.55 1005.41 1006.20 1006.68 1007.17 1007.73 1008.09
1013.50 1010.74 1010.63 1008.20 1008.08 1007.78 1007.56 1006.69 1005.69 1005.07 1005.17 1004.71 1004.26 1003.96 1003.27 1002.71 1002.25 1002.19 1001.86 1002.38 1002.83 1003.25 1003.05 1002.41 1001.93 1002.37 1002.53 1003.05 1003.21 1003.04 1002.98 1003.21 1003.02 1002.73 1002.65 1002.21 1002.68 1003.54 1004.51 1005.16 1006.10 1006.77 1007.38 1007.84 1008.09
1013.82 1012.22 1011.14 1009.88 1009.25 1008.55 1007.62 1006.87 1006.40 1005.87 1005.90 1004.87 1004.65 1004.24 1003.76 1003.30 1002.52 1002.07 1001.82 1001.74 1001.80 1002.77 1002.53 1002.44 1002.11 1002.76 1002.85 1003.54 1003.65 1003.42 1003.23 1003.15 1003.11 1003.17 1003.38 1003.31 1003.53 1004.63 1005.59 1006.29 1006.70 1007.16 1007.46 1007.80 1008.04
1014.50 1013.81 1013.03 1010.46 1009.22 1008.60 1007.34 1007.27 1007.18 1007.51 1006.67 1006.37 1005.93 1005.32 1004.46 1004.10 1003.96 1003.41 1002.67 1001.92 1001.32 1001.68 1001.85 1002.06 1002.21 1002.91 1002.60 1003.51 1003.90 1003.56 1003.02 1003.07 1003.08 1003.10 1003.25 1003.17 1003.64 1005.02 1006.02 1006.56 1006.99 1007.44 1007.68 1007.82 1008.17
Thickness
5741 5743 5746 5748 5749 5752 5755 5758 5761 5763 5764 5766 5767 5769 5771 5774 5779 5785 5791 5802 5803 5801 5800 5803 5801 5802 5803 5796 5790 5790 5768 5751 5759 5759 5752 5748 5755 5765 5777 5771 5771 5772 5775 5770 5762
5743 5746 5748 5751 5753 5755 5757 5760 5764 5766 5767 5768 5769 5770 5772 5774 5785 5791 5804 5801 5799 5801 5802 5797 5794 5797 5790 5790 5790 5783 5761 5757 5772 5751 5741 5747 5754 5766 5771 5769 5765 5764 5771 5766 5760
5745 5748 5751 5753 5756 5758 5760 5762 5765 5768 5769 5769 5770 5771 5772 5774 5786 5800 5804 5799 5798 5800 5805 5803 5802 5796 5787 5793 5790 5780 5760 5769 5758 5756 5751 5746 5751 5770 5768 5763 5772 5763 5761 5761 5757
5747 5750 5753 5756 5759 5761 5763 5765 5767 5770 5771 5772 5772 5772 5773 5781 5775 5804 5801 5797 5796 5801 5801 5797 5795 5790 5787 5782 5790 5774 5772 5772 5756 5754 5753 5746 5762 5764 5771 5774 5781 5777 5770 5763 5757
5748 5751 5755 5759 5761 5764 5766 5768 5770 5772 5773 5774 5773 5772 5777 5785 5789 5803 5797 5794 5797 5798 5795 5791 5790 5790 5780 5786 5785 5775 5768 5769 5763 5752 5752 5754 5751 5762 5767 5773 5780 5775 5768 5763 5761
5748 5752 5757 5760 5763 5766 5769 5772 5773 5774 5775 5775 5774 5772 5782 5781 5801 5801 5798 5794 5797 5794 5795 5794 5790 5796 5789 5784 5782 5777 5772 5766 5765 5757 5755 5746 5743 5762 5763 5774 5771 5769 5767 5765 5762
5748 5753 5757 5761 5764 5768 5771 5774 5776 5777 5777 5776 5775 5778 5785 5785 5800 5797 5795 5794 5795 5794 5790 5796 5796 5790 5794 5778 5787 5779 5763 5764 5763 5759 5744 5749 5735 5737 5765 5768 5767 5767 5769 5764 5763
5748 5753 5757 5761 5765 5769 5773 5776 5779 5780 5778 5776 5775 5781 5786 5798 5797 5791 5793 5788 5792 5794 5793 5797 5798 5793 5791 5790 5779 5771 5770 5747 5757 5760 5750 5743 5719 5737 5756 5761 5763 5765 5766 5763 5763
5748 5753 5758 5761 5766 5770 5774 5777 5780 5780 5778 5775 5779 5783 5781 5792 5786 5795 5795 5784 5786 5788 5790 5791 5792 5786 5783 5776 5774 5770 5759 5755 5750 5765 5760 5753 5743 5753 5751 5754 5759 5764 5767 5766 5763
5747 5752 5757 5762 5766 5770 5774 5775 5776 5778 5777 5779 5781 5776 5787 5785 5791 5791 5792 5790 5781 5780 5775 5777 5781 5775 5779 5781 5758 5763 5765 5762 5757 5763 5760 5756 5754 5757 5751 5744 5753 5765 5767 5767 5766
5745 5751 5757 5762 5765 5769 5774 5781 5783 5780 5783 5792 5792 5789 5791 5797 5796 5786 5788 5781 5781 5774 5762 5772 5764 5760 5780 5783 5776 5772 5769 5761 5763 5768 5762 5761 5758 5753 5757 5741 5744 5759 5769 5770 5768
5743 5750 5756 5762 5766 5769 5774 5790 5785 5783 5778 5797 5791 5788 5795 5798 5774 5779 5789 5769 5765 5755 5765 5758 5754 5778 5779 5775 5770 5771 5765 5759 5761 5765 5763 5764 5762 5765 5761 5756 5753 5752 5767 5772 5772
5741 5747 5754 5762 5767 5771 5780 5786 5788 5786 5776 5788 5795 5792 5788 5789 5777 5773 5780 5773 5761 5755 5756 5757 5770 5778 5772 5770 5764 5773 5766 5760 5760 5762 5770 5765 5763 5758 5763 5762 5765 5759 5755 5768 5772
5738 5744 5749 5759 5765 5775 5779 5782 5783 5783 5771 5777 5784 5791 5791 5792 5771 5791 5788 5775 5761 5753 5760 5761 5779 5766 5767 5765 5776 5769 5778 5770 5763 5767 5748 5773 5744 5764 5768 5760 5758 5764 5761 5765 5773
5733 5739 5744 5746 5761 5770 5774 5778 5780 5775 5744 5788 5786 5807 5797 5781 5780 5770 5788 5774 5760 5759 5760 5766 5765 5762 5761 5773 5780 5770 5775 5770 5769 5769 5766 5764 5765 5767 5769 5761 5766 5767 5764 5764 5774
5731 5733 5739 5748 5756 5769 5769 5773 5771 5751 5739 5773 5787 5779 5775 5782 5778 5775 5769 5777 5778 5765 5768 5769 5780 5776 5777 5779 5780 5779 5768 5765 5769 5767 5758 5762 5761 5770 5773 5773 5777 5780 5776 5777 5775
5726 5731 5732 5742 5760 5760 5763 5766 5747 5741 5775 5767 5771 5781 5779 5771 5769 5768 5759 5755 5757 5746 5753 5767 5769 5780 5783 5768 5774 5773 5771 5757 5751 5756 5759 5770 5760 5776 5782 5783 5780 5779 5782 5780 5781
5720 5728 5735 5738 5745 5748 5755 5749 5730 5765 5768 5780 5780 5780 5768 5778 5772 5767 5762 5756 5770 5769 5772 5759 5743 5769 5784 5781 5774 5770 5781 5769 5738 5749 5759 5766 5754 5769 5783 5789 5785 5781 5783 5788 5788
5717 5736 5737 5740 5736 5738 5740 5729 5751 5763 5776 5769 5769 5763 5765 5772 5773 5766 5761 5764 5775 5775 5760 5761 5764 5782 5782 5785 5786 5767 5755 5790 5768 5767 5748 5769 5769 5781 5783 5782 5783 5782 5782 5782 5787
5710 5724 5734 5732 5733 5734 5729 5729 5753 5765 5767 5766 5756 5771 5763 5767 5760 5763 5762 5778 5773 5781 5788 5779 5756 5777 5773 5781 5778 5776 5789 5757 5765 5737 5732 5760 5750 5763 5769 5771 5780 5782 5783 5781 5783
5706 5715 5722 5725 5725 5726 5722 5735 5745 5756 5758 5756 5758 5759 5767 5771 5770 5766 5769 5779 5786 5777 5781 5784 5775 5759 5770 5769 5777 5764 5765 5768 5776 5764 5749 5749 5762 5782 5774 5772 5774 5779 5780 5781 5780
5694 5704 5715 5716 5712 5724 5722 5729 5726 5744 5751 5750 5754 5756 5757 5765 5765 5768 5766 5779 5792 5785 5764 5780 5785 5763 5772 5776 5779 5779 5775 5779 5758 5752 5762 5752 5759 5790 5779 5776 5774 5774 5776 5776 5774
5684 5695 5708 5705 5703 5710 5720 5719 5726 5732 5739 5740 5742 5752 5761 5756 5750 5765 5773 5783 5782 5780 5777 5777 5771 5749 5749 5760 5768 5764 5772 5777 5780 5780 5756 5746 5766 5786 5778 5772 5772 5772 5772 5769 5768
5668 5684 5696 5697 5701 5701 5703 5708 5714 5728 5730 5736 5737 5747 5746 5746 5759 5757 5763 5769 5777 5780 5763 5781 5782 5766 5759 5762 5772 5755 5760 5767 5772 5762 5768 5765 5770 5772 5772 5767 5766 5767 5769 5766 5766
5659 5673 5670 5685 5685 5689 5689 5696 5701 5707 5718 5727 5724 5729 5736 5734 5744 5745 5763 5762 5766 5755 5768 5776 5757 5762 5763 5760 5760 5758 5757 5758 5756 5765 5751 5773 5767 5772 5771 5772 5767 5767 5763 5759 5759
5639 5647 5659 5665 5668 5670 5668 5683 5687 5696 5697 5706 5710 5721 5730 5726 5742 5740 5756 5760 5758 5761 5763 5771 5753 5755 5745 5750 5750 5744 5755 5757 5758 5758 5755 5760 5756 5766 5764 5761 5758 5757 5757 5754 5755
5627 5629 5630 5647 5658 5658 5669 5671 5672 5673 5686 5689 5694 5701 5710 5723 5732 5743 5756 5765 5771 5760 5757 5758 5752 5739 5734 5742 5736 5727 5748 5752 5755 5762 5757 5745 5759 5759 5748 5748 5750 5749 5751 5751 5750